Wind_Speed
14 12 12 10 9 8 7 6 5 5 4 3 3 2 2 2 3 3 4 5 6 8 9 10 11 13 14 16 17 18 19 20 21 21 21 20 20 19 18 18 17 17
17 16 14 12 11 10 9 8 7 6 5 5 4 3 2 2 2 2 3 4 6 7 8 9 10 12 13 14 15 16 17 18 19 20 20 20 19 18 18 17 16 15
20 19 17 15 14 13 12 11 9 8 7 7 6 5 4 4 4 4 4 4 5 6 7 8 10 10 11 12 13 14 16 17 18 19 19 19 19 18 17 16 15 14
22 21 20 19 18 16 14 13 12 11 10 9 8 7 7 6 6 6 5 5 5 6 7 8 9 10 11 12 13 14 15 16 17 18 19 19 19 18 18 17 15 14
23 23 23 22 20 19 17 16 15 14 14 12 11 10 9 9 8 7 7 7 6 7 7 7 8 9 10 12 12 13 14 15 17 18 18 19 19 19 18 17 16 14
25 24 24 23 22 21 20 19 18 18 17 16 15 13 12 11 10 9 9 8 8 8 8 8 8 9 10 11 12 13 14 15 16 18 18 19 19 19 18 18 16 15
26 25 24 23 22 22 22 22 21 20 19 18 17 16 15 14 13 12 11 10 10 9 9 9 9 10 10 11 12 13 14 15 16 17 19 19 19 19 19 18 17 16
27 26 26 25 24 23 24 23 22 21 21 20 19 18 17 16 15 14 13 12 11 11 11 11 11 11 12 12 13 14 15 16 17 18 18 19 19 19 19 18 17 16
28 28 27 26 26 25 25 24 23 22 22 21 20 20 19 18 18 16 15 14 13 13 13 13 13 13 14 14 15 16 16 17 17 18 18 19 19 19 19 18 18 17
27 28 28 27 27 26 26 24 24 24 23 22 22 21 20 20 20 19 17 16 15 15 15 15 15 15 16 16 17 17 18 18 18 18 18 19 19 19 18 18 17 17
25 25 26 26 26 26 25 25 25 24 24 23 23 22 21 21 21 20 20 19 18 17 17 17 17 17 18 18 18 18 19 19 19 19 19 19 19 18 18 17 17 16
23 23 23 22 23 23 24 24 24 24 24 24 24 23 22 22 21 21 21 20 20 20 19 19 19 19 19 19 19 19 19 19 19 19 19 18 18 17 17 16 16 15
22 21 19 19 19 21 22 23 23 24 24 24 24 23 23 23 22 21 21 21 22 22 22 21 21 20 20 19 19 19 19 19 19 19 19 18 17 17 16 15 15 14
20 19 18 17 17 19 21 23 23 23 22 22 23 23 23 22 21 21 21 22 22 23 23 23 22 21 20 19 19 19 18 18 18 18 18 18 17 17 16 16 15 15
19 18 18 17 17 18 19 20 21 20 19 20 21 20 20 20 20 20 20 20 21 21 22 22 21 20 19 19 18 18 18 18 17 17 17 17 17 17 17 16 16 16
20 20 19 18 18 17 17 17 17 17 17 18 18 18 18 18 18 19 19 18 17 18 19 19 19 18 18 17 17 17 17 17 16 16 17 17 17 17 17 17 17 17
23 22 21 20 19 18 17 16 15 15 16 16 16 15 15 15 15 16 16 15 14 14 15 15 15 15 16 16 15 16 16 15 15 16 16 17 18 18 18 18 18 18
26 24 23 21 20 19 18 16 15 15 14 14 13 12 12 13 14 14 13 12 12 11 11 11 10 12 13 14 14 14 14 15 15 15 16 17 18 18 19 19 19 19
29 27 25 23 22 21 20 19 18 16 14 13 12 11 12 13 14 12 11 11 10 9 8 7 7 9 11 12 12 12 13 14 14 15 16 17 18 18 19 19 19 19
31 29 28 26 25 23 23 22 21 19 16 14 13 13 14 14 13 12 12 11 11 9 7 6 6 8 10 10 10 10 11 13 14 15 16 17 17 17 18 19 19 20
35 33 30 28 27 26 25 24 23 21 19 17 16 16 15 14 14 14 14 13 12 10 9 8 7 7 8 9 9 9 10 11 13 14 15 16 16 16 17 18 18 19
39 37 34 32 30 28 27 26 24 23 21 20 19 18 17 16 15 15 15 14 14 13 12 10 8 7 9 9 9 9 10 11 13 13 14 14 14 14 15 15 16 17
42 40 38 36 34 32 30 27 26 24 22 22 21 20 19 18 18 17 17 17 17 16 14 12 9 10 11 11 10 10 11 12 12 12 13 13 13 13 13 14 14 15
44 43 41 39 37 36 32 28 26 25 24 23 23 22 21 20 20 20 19 19 19 18 16 14 12 12 13 13 12 11 12 13 13 13 13 13 12 12 13 13 14 15
46 45 43 42 40 37 34 30 27 26 25 25 25 24 23 22 22 22 21 21 21 20 18 17 15 15 15 15 13 13 13 13 13 14 14 13 12 13 14 14 15 15
48 47 45 44 42 39 35 32 30 28 28 28 27 26 25 24 24 23 23 23 22 21 21 19 17 17 17 16 15 14 15 14 15 15 14 13 13 13 14 15 15 15
Wind_Direction
234 236 237 233 231 232 231 237 250 260 268 281 302 333 6 18 22 25 28 29 28 30 31 32 34 35 37 36 35 34 35 35 35 36 37 38 41 43 45 47 47 46
224 222 226 227 228 230 230 229 235 247 257 265 275 282 289 300 313 337 357 3 7 14 19 23 26 28 29 29 28 27 28 29 29 30 31 32 34 37 40 42 43 42
222 216 216 219 221 223 225 227 229 232 240 246 254 261 266 271 281 296 315 331 341 354 4 10 15 17 17 18 19 19 20 21 21 22 24 25 26 29 32 35 37 38
221 216 213 214 216 218 221 225 227 229 232 235 239 246 252 259 270 279 289 301 315 330 344 353 -0 3 4 6 8 11 12 12 12 13 15 16 18 20 24 27 29 31
219 218 216 215 215 216 219 222 225 228 232 233 235 237 241 248 258 268 277 286 297 309 321 334 343 348 351 355 358 0 2 3 3 3 5 7 9 12 14 18 20 22
215 217 219 218 217 217 218 221 223 227 230 234 236 236 238 241 248 257 266 275 285 295 305 315 325 332 337 342 347 350 352 353 354 354 356 358 1 3 6 9 11 13
214 215 217 220 221 221 221 222 224 227 230 235 239 242 243 243 245 250 256 265 274 284 292 300 308 315 322 328 334 339 341 343 345 346 348 350 352 355 358 0 3 5
217 216 216 217 218 221 224 225 226 229 232 235 240 244 248 251 251 252 254 259 267 274 283 289 295 302 308 315 321 326 331 334 336 338 340 342 345 347 350 353 355 358
221 220 219 218 217 219 222 224 226 229 232 235 239 243 249 253 256 257 258 260 264 270 276 282 288 293 299 306 312 318 322 325 328 331 333 335 337 340 342 345 347 350
224 224 224 223 221 222 224 225 226 228 231 233 237 241 245 250 255 259 261 263 266 269 274 279 283 289 294 300 306 311 315 318 321 324 326 328 330 333 335 337 339 342
230 228 228 227 226 226 228 228 229 231 232 233 236 239 242 246 251 257 262 265 268 270 273 277 281 285 290 294 300 305 309 312 315 317 319 321 323 325 327 329 331 334
235 233 231 230 229 229 231 231 232 235 236 238 240 242 244 246 249 253 259 265 269 271 273 274 277 280 284 289 294 299 303 306 309 311 313 315 316 318 319 321 323 326
233 235 234 232 230 229 231 232 233 234 236 239 243 245 247 250 251 252 255 260 265 269 271 272 273 276 280 284 288 292 296 300 302 305 307 308 310 310 311 313 315 317
227 230 232 231 229 228 229 231 233 235 235 237 241 245 249 253 254 255 255 256 260 264 267 270 272 274 276 280 283 287 290 293 296 299 302 303 304 305 306 308 310 312
224 225 226 227 227 226 225 227 230 235 238 239 242 245 249 254 257 258 258 258 258 260 263 267 270 273 275 278 281 284 287 290 293 296 299 300 301 303 305 306 308 309
224 224 223 224 225 225 224 224 225 229 233 237 241 245 249 252 255 258 259 261 262 263 263 266 269 271 274 277 279 282 285 288 292 295 297 298 300 302 304 305 306 308
223 223 223 224 226 227 227 225 221 219 222 226 233 240 245 251 255 257 260 265 268 267 266 267 269 271 274 276 278 281 284 288 291 294 295 297 299 301 302 303 304 306
221 221 222 224 226 230 233 233 229 223 217 215 218 225 234 244 249 253 259 264 268 269 269 270 273 273 274 276 278 281 284 288 292 293 294 296 297 299 299 300 301 302
221 220 220 221 223 227 232 236 238 236 228 219 213 212 219 230 238 246 253 258 263 265 267 270 270 269 271 273 277 281 285 288 291 292 293 293 294 296 297 298 299 299
224 223 220 218 218 221 226 231 235 239 239 234 226 220 221 226 232 239 245 249 254 258 259 257 255 258 265 271 274 278 283 287 288 288 289 290 292 295 296 297 298 298
228 227 224 222 220 220 222 225 229 232 235 236 234 231 230 230 232 236 241 246 250 253 254 251 245 249 258 264 268 274 278 280 281 282 285 289 292 294 295 296 299 301
231 230 229 228 226 224 222 223 224 226 229 232 233 234 234 233 234 237 242 246 249 249 250 247 244 247 254 257 262 266 268 270 273 279 285 289 294 297 300 303 304 305
234 234 232 232 232 230 226 223 222 222 224 228 231 232 233 235 235 237 240 243 246 248 250 250 248 249 254 256 258 259 262 267 273 279 285 291 299 306 309 310 309 310
235 236 235 235 235 234 231 227 224 223 223 225 229 230 232 233 235 237 238 240 245 249 252 252 249 249 253 256 258 261 264 268 275 280 284 293 305 311 310 308 309 313
234 236 236 236 236 235 234 231 229 228 227 228 229 229 230 231 233 236 237 239 243 247 250 251 250 250 253 256 259 262 266 269 275 280 285 295 304 305 304 305 309 314
232 234 236 236 236 235 233 231 231 231 230 229 229 230 231 231 232 235 237 239 241 243 246 248 249 250 254 257 259 261 265 270 275 278 285 293 297 297 299 302 307 311
Height
11003 11004 11005 11006 11007 11008 11009 11009 11010 11010 11011 11011 11012 11013 11013 11014 11015 11015 11015 11015 11015 11015 11015 11014 11014 11013 11012 11011 11011 11011 11010 11010 11009 11008 11008 11007 11006 11006 11005 11004 11003 11003
11002 11003 11004 11005 11006 11007 11008 11009 11009 11010 11011 11011 11012 11013 11013 11014 11015 11016 11016 11016 11016 11016 11015 11015 11014 11014 11013 11013 11012 11012 11011 11011 11010 11010 11009 11008 11008 11007 11006 11005 11005 11004
11001 11002 11003 11004 11005 11006 11007 11008 11009 11010 11010 11011 11012 11012 11013 11014 11016 11016 11017 11017 11017 11017 11016 11016 11015 11014 11014 11014 11013 11013 11012 11011 11011 11010 11010 11009 11008 11008 11007 11006 11006 11005
11000 11001 11002 11003 11003 11005 11006 11007 11008 11009 11010 11011 11011 11012 11013 11014 11015 11016 11017 11017 11017 11017 11017 11016 11016 11015 11015 11014 11014 11013 11012 11012 11011 11011 11010 11010 11009 11008 11008 11007 11007 11006
10998 11000 11000 11001 11002 11003 11005 11006 11007 11008 11009 11010 11011 11012 11012 11013 11015 11016 11016 11017 11017 11017 11017 11017 11016 11016 11015 11014 11014 11013 11013 11012 11012 11011 11011 11010 11009 11009 11008 11007 11007 11007
10997 10998 10999 11000 11001 11002 11003 11004 11006 11007 11008 11009 11010 11011 11012 11013 11013 11014 11015 11016 11016 11016 11016 11016 11016 11016 11015 11015 11014 11013 11013 11012 11012 11011 11011 11010 11009 11009 11008 11008 11007 11007
10995 10997 10998 11000 11001 11002 11002 11003 11004 11005 11007 11008 11009 11010 11011 11012 11012 11013 11013 11014 11014 11015 11015 11015 11015 11015 11015 11014 11014 11013 11013 11012 11012 11011 11011 11010 11009 11009 11008 11008 11007 11007
10993 10995 10996 10998 10999 11000 11001 11002 11003 11004 11005 11006 11008 11009 11009 11010 11011 11011 11012 11012 11013 11013 11014 11014 11014 11014 11014 11014 11013 11013 11013 11012 11012 11011 11010 11010 11009 11009 11008 11008 11007 11007
10991 10992 10994 10995 10997 10998 10999 11000 11001 11002 11003 11005 11006 11006 11007 11008 11009 11009 11010 11010 11011 11011 11012 11012 11013 11013 11013 11013 11013 11012 11012 11012 11011 11011 11010 11009 11009 11008 11008 11007 11007 11006
10988 10990 10991 10993 10995 10996 10997 10999 11000 11000 11001 11002 11003 11004 11005 11006 11007 11007 11008 11009 11009 11009 11010 11010 11010 11011 11011 11011 11011 11011 11011 11011 11010 11010 11010 11009 11008 11008 11007 11007 11006 11006
10986 10987 10989 10991 10993 10994 10996 10997 10998 10999 11000 11000 11001 11002 11003 11004 11004 11005 11005 11006 11007 11007 11008 11008 11008 11009 11009 11009 11010 11010 11010 11009 11009 11009 11009 11008 11008 11007 11007 11006 11006 11005
10984 10985 10986 10989 10991 10992 10994 10995 10997 10997 10998 10999 10999 11000 11001 11001 11002 11003 11003 11003 11004 11004 11005 11006 11006 11007 11007 11007 11008 11008 11008 11008 11008 11008 11007 11007 11007 11006 11006 11006 11005 11005
10981 10982 10984 10986 10988 10990 10991 10993 10994 10995 10996 10997 10997 10998 10998 10999 11000 11001 11001 11002 11001 11002 11003 11003 11004 11004 11005 11005 11006 11006 11006 11006 11006 11006 11006 11006 11006 11005 11005 11005 11004 11004
10980 10981 10982 10984 10986 10988 10989 10990 10991 10992 10994 10995 10995 10996 10996 10996 10997 10998 10999 11000 11000 11000 11000 11001 11001 11002 11003 11003 11004 11004 11004 11005 11005 11005 11005 11004 11004 11004 11004 11003 11003 11003
10979 10980 10981 10982 10984 10985 10986 10988 10989 10990 10991 10993 10993 10994 10994 10995 10996 10996 10997 10997 10998 10998 10999 10999 10999 11000 11001 11001 11002 11002 11002 11003 11003 11003 11003 11003 11003 11002 11002 11002 11002 11001
10977 10978 10980 10981 10982 10984 10985 10986 10988 10989 10990 10991 10992 10992 10993 10994 10994 10994 10995 10995 10996 10997 10997 10997 10998 10998 10999 11000 11000 11000 11001 11001 11001 11001 11001 11001 11001 11001 11000 11000 11000 11000
10974 10976 10978 10979 10981 10982 10984 10985 10987 10988 10989 10990 10991 10991 10992 10993 10993 10993 10993 10994 10994 10995 10995 10996 10996 10997 10997 10998 10998 10999 10999 10999 10999 10999 10999 10999 10999 10999 10998 10998 10998 10998
10971 10973 10975 10977 10979 10981 10982 10984 10985 10987 10988 10989 10990 10990 10991 10991 10991 10992 10992 10992 10993 10993 10994 10994 10995 10995 10996 10996 10996 10997 10997 10997 10998 10998 10997 10997 10997 10996 10996 10996 10996 10995
10968 10970 10972 10974 10976 10978 10980 10982 10983 10985 10986 10988 10988 10989 10990 10990 10990 10990 10991 10991 10991 10992 10992 10993 10994 10994 10994 10994 10994 10995 10995 10995 10996 10995 10995 10995 10995 10994 10994 10993 10993 10993
10966 10967 10968 10970 10973 10975 10977 10979 10980 10982 10984 10986 10987 10987 10988 10988 10989 10989 10989 10989 10990 10990 10991 10991 10992 10992 10992 10992 10992 10993 10993 10993 10993 10993 10993 10993 10992 10992 10992 10991 10991 10991
10962 10964 10966 10968 10970 10971 10973 10975 10977 10979 10981 10983 10984 10985 10986 10986 10987 10987 10987 10988 10988 10988 10989 10989 10990 10990 10990 10990 10990 10991 10991 10991 10991 10991 10991 10991 10991 10990 10990 10990 10989 10988
10958 10961 10963 10965 10967 10969 10970 10972 10974 10977 10979 10980 10981 10982 10983 10984 10985 10986 10986 10986 10986 10986 10986 10987 10988 10988 10988 10988 10989 10989 10989 10989 10989 10989 10989 10989 10989 10988 10988 10988 10987 10987
10954 10957 10960 10962 10964 10966 10968 10970 10972 10974 10976 10977 10978 10979 10980 10981 10982 10983 10984 10984 10984 10984 10984 10985 10986 10986 10986 10986 10987 10987 10987 10986 10987 10987 10987 10987 10987 10987 10986 10986 10986 10985
10950 10952 10955 10958 10960 10962 10965 10968 10970 10971 10973 10974 10975 10976 10977 10978 10979 10980 10981 10982 10982 10982 10983 10983 10984 10984 10983 10984 10984 10984 10984 10985 10985 10985 10985 10985 10985 10985 10984 10984 10984 10983
10945 10947 10950 10953 10956 10958 10962 10965 10967 10969 10970 10971 10972 10973 10974 10975 10976 10977 10978 10979 10980 10980 10981 10981 10981 10981 10981 10981 10982 10982 10982 10982 10983 10983 10983 10983 10983 10983 10982 10982 10982 10981
10940 10943 10945 10948 10950 10954 10957 10960 10962 10965 10967 10968 10968 10970 10971 10972 10973 10973 10974 10975 10976 10977 10978 10978 10978 10979 10978 10978 10979 10979 10979 10980 10980 10980 10980 10981 10981 10980 10980 10979 10979 10979